Location: Unspecified
(0.0000°N, 0.0000°E)
Time: 23:59:22
(UTC+00:00)

ISS - Visible Passes

Search period start: 20 July 2019 00:00
Search period end: 30 July 2019 00:00
Orbit: 409 x 418 km, 51.6° (Epoch: 20 July)

Date Brightness Start Highest point End Pass type
(mag) Time Alt. Az. Time Alt. Az. Time Alt. Az.
20 Jul -0.5 04:27:21 10° NNE 04:29:21 15° NE 04:31:20 10° E visible
21 Jul -3.3 05:13:28 10° NW 05:16:33 38° SW 05:19:40 10° SSE visible
22 Jul -1.9 04:29:12 23° SE 04:29:12 23° SE 04:30:35 10° SE visible
